• In Hungary
  • List of Countries
  • For 7 days
  • Water Temperature
  • Satellite Maps
  • Weather Map
  • News
  • Weather Widgets
  • user-avatar
    Login

    Hourly Weather Chuya

    Today, 22 October, Monday

    Time Temperature Precipitation Wind Pressure Humidity
    00:00 +13°C° 0 mm 1 mps 702 mmHg 31%
    01:00 +12°C° 0 mm 1 mps 702 mmHg 32%
    02:00 +12°C° 0 mm 1 mps 702 mmHg 32%
    03:00 +12°C° 0 mm 1 mps 702 mmHg 32%
    04:00 +11°C° 0 mm 1 mps 701 mmHg 33%
    05:00 +12°C° 0 mm 1 mps 702 mmHg 32%
    06:00 +13°C° 0 mm 1 mps 702 mmHg 31%
    07:00 +13°C° 0 mm 1 mps 702 mmHg 30%
    08:00 +15°C° 0 mm 1 mps 702 mmHg 26%
    09:00 +19°C° 0 mm 1 mps 703 mmHg 22%
    10:00 +19°C° 0 mm 0 mps 703 mmHg 18%
    11:00 +21°C° 0 mm 1 mps 703 mmHg 17%
    12:00 +22°C° 0 mm 1 mps 702 mmHg 16%
    13:00 +23°C° 0 mm 1 mps 702 mmHg 15%
    14:00 +21°C° 0 mm 2 mps 702 mmHg 16%
    15:00 +21°C° 0 mm 2 mps 702 mmHg 17%
    16:00 +21°C° 0 mm 2 mps 702 mmHg 18%
    17:00 +19°C° 0 mm 2 mps 702 mmHg 20%
    18:00 +17°C° 0 mm 2 mps 702 mmHg 23%
    19:00 +16°C° 0 mm 2 mps 702 mmHg 26%
    20:00 +15°C° 0 mm 2 mps 702 mmHg 27%
    21:00 +15°C° 0 mm 2 mps 702 mmHg 28%
    22:00 +14°C° 0 mm 2 mps 702 mmHg 29%
    23:00 +14°C° 0 mm 2 mps 701 mmHg 29%

    Tomorrow, 23 October, Tuesday

    Time Temperature Precipitation Wind Pressure Humidity
    00:00 +14°C° 0 mm 2 mps 701 mmHg 29%
    01:00 +13°C° 0 mm 2 mps 701 mmHg 30%
    02:00 +13°C° 0 mm 2 mps 701 mmHg 30%
    03:00 +12°C° 0 mm 2 mps 701 mmHg 30%
    04:00 +12°C° 0 mm 2 mps 701 mmHg 31%
    05:00 +12°C° 0 mm 2 mps 701 mmHg 30%
    06:00 +13°C° 0 mm 2 mps 702 mmHg 30%
    07:00 +13°C° 0 mm 2 mps 702 mmHg 29%
    08:00 +15°C° 0 mm 2 mps 702 mmHg 26%
    09:00 +17°C° 0 mm 2 mps 703 mmHg 23%
    10:00 +20°C° 0 mm 1 mps 703 mmHg 20%
    11:00 +21°C° 0 mm 1 mps 703 mmHg 19%
    12:00 +21°C° 0 mm 1 mps 703 mmHg 18%
    13:00 +22°C° 0 mm 1 mps 703 mmHg 17%
    14:00 +22°C° 0 mm 1 mps 702 mmHg 18%
    15:00 +20°C° 0 mm 2 mps 702 mmHg 19%
    16:00 +20°C° 0 mm 2 mps 702 mmHg 20%
    17:00 +19°C° 0 mm 2 mps 702 mmHg 22%
    18:00 +17°C° 0 mm 2 mps 702 mmHg 24%
    19:00 +16°C° 0 mm 3 mps 702 mmHg 26%
    20:00 +16°C° 0 mm 3 mps 701 mmHg 28%
    21:00 +14°C° 0 mm 3 mps 701 mmHg 29%
    22:00 +14°C° 0 mm 3 mps 701 mmHg 31%
    23:00 +13°C° 0 mm 3 mps 701 mmHg 31%

    Day after tomorrow, 24 October, Wednesday

    Time Temperature Precipitation Wind Pressure Humidity
    00:00 +13°C° 0 mm 3 mps 701 mmHg 32%
    01:00 +13°C° 0 mm 3 mps 701 mmHg 33%
    02:00 +13°C° 0 mm 3 mps 700 mmHg 32%
    03:00 +13°C° 0 mm 3 mps 700 mmHg 31%
    04:00 +12°C° 0 mm 3 mps 700 mmHg 31%
    05:00 +13°C° 0 mm 3 mps 700 mmHg 30%
    06:00 +13°C° 0 mm 3 mps 701 mmHg 28%
    07:00 +14°C° 0 mm 3 mps 701 mmHg 27%
    08:00 +17°C° 0 mm 2 mps 701 mmHg 24%
    09:00 +18°C° 0 mm 2 mps 701 mmHg 22%
    10:00 +20°C° 0 mm 2 mps 702 mmHg 19%
    11:00 +21°C° 0 mm 2 mps 701 mmHg 18%
    12:00 +21°C° 0 mm 2 mps 701 mmHg 18%
    13:00 +23°C° 0 mm 2 mps 701 mmHg 18%
    14:00 +23°C° 0 mm 2 mps 701 mmHg 19%
    15:00 +21°C° 0 mm 2 mps 701 mmHg 19%
    16:00 +22°C° 0 mm 1 mps 701 mmHg 20%
    17:00 +20°C° 0 mm 2 mps 701 mmHg 22%
    18:00 +19°C° 0 mm 2 mps 700 mmHg 25%
    19:00 +18°C° 0 mm 2 mps 700 mmHg 27%
    20:00 +17°C° 0 mm 2 mps 700 mmHg 28%
    21:00 +17°C° 0 mm 2 mps 700 mmHg 30%
    22:00 +16°C° 0 mm 3 mps 700 mmHg 31%
    23:00 +16°C° 0 mm 2 mps 700 mmHg 31%

    25 October, Thursday

    Time Temperature Precipitation Wind Pressure Humidity
    00:00 +16°C° 0 mm 2 mps 700 mmHg 31%
    01:00 +15°C° 0 mm 2 mps 700 mmHg 32%
    02:00 +15°C° 0 mm 2 mps 700 mmHg 32%
    03:00 +15°C° 0 mm 2 mps 700 mmHg 32%
    04:00 +14°C° 0 mm 2 mps 700 mmHg 33%
    05:00 +15°C° 0 mm 2 mps 700 mmHg 32%
    06:00 +15°C° 0 mm 2 mps 700 mmHg 31%
    07:00 +16°C° 0 mm 2 mps 700 mmHg 30%
    08:00 +18°C° 0 mm 2 mps 701 mmHg 26%
    09:00 +20°C° 0 mm 2 mps 701 mmHg 22%
    10:00 +23°C° 0 mm 2 mps 701 mmHg 18%
    11:00 +24°C° 0 mm 2 mps 701 mmHg 18%
    12:00 +25°C° 0 mm 1 mps 701 mmHg 18%
    13:00 +25°C° 0 mm 1 mps 700 mmHg 18%
    14:00 +25°C° 0 mm 1 mps 700 mmHg 19%
    15:00 +25°C° 0 mm 2 mps 700 mmHg 20%
    16:00 +24°C° 0 mm 2 mps 700 mmHg 21%
    17:00 +23°C° 0 mm 2 mps 700 mmHg 22%
    18:00 +21°C° 0 mm 3 mps 700 mmHg 24%
    19:00 +20°C° 0 mm 3 mps 700 mmHg 25%
    20:00 +20°C° 0 mm 3 mps 700 mmHg 26%
    21:00 +19°C° 0 mm 3 mps 700 mmHg 26%
    22:00 +19°C° 0 mm 4 mps 699 mmHg 26%
    23:00 +19°C° 0 mm 3 mps 699 mmHg 26%

    26 October, Friday

    Time Temperature Precipitation Wind Pressure Humidity
    00:00 +19°C° 0 mm 3 mps 699 mmHg 25%
    01:00 +19°C° 0 mm 3 mps 699 mmHg 25%
    02:00 +19°C° 0 mm 3 mps 699 mmHg 25%
    03:00 +19°C° 0 mm 3 mps 699 mmHg 25%
    04:00 +19°C° 0 mm 3 mps 699 mmHg 25%
    05:00 +19°C° 0.1 mm 3 mps 699 mmHg 28%
    06:00 +20°C° 0.1 mm 3 mps 699 mmHg 31%
    07:00 +20°C° 0.1 mm 4 mps 700 mmHg 34%
    08:00 +22°C° 0 mm 4 mps 700 mmHg 30%
    09:00 +25°C° 0 mm 5 mps 700 mmHg 26%
    10:00 +27°C° 0 mm 6 mps 700 mmHg 23%
    11:00 +27°C° 0 mm 6 mps 700 mmHg 20%
    12:00 +28°C° 0 mm 6 mps 700 mmHg 18%
    13:00 +29°C° 0 mm 6 mps 699 mmHg 16%
    14:00 +29°C° 0 mm 5 mps 699 mmHg 17%
    15:00 +28°C° 0 mm 4 mps 699 mmHg 17%
    16:00 +28°C° 0 mm 3 mps 699 mmHg 18%
    17:00 +26°C° 0 mm 2 mps 699 mmHg 19%
    18:00 +25°C° 0 mm 2 mps 699 mmHg 21%
    19:00 +23°C° 0 mm 2 mps 699 mmHg 22%
    20:00 +22°C° 0 mm 3 mps 699 mmHg 22%
    21:00 +22°C° 0 mm 3 mps 699 mmHg 23%
    22:00 +22°C° 0 mm 3 mps 699 mmHg 23%
    23:00 +21°C° 0 mm 3 mps 699 mmHg 24%

    27 October, Saturday

    Time Temperature Precipitation Wind Pressure Humidity
    00:00 +21°C° 0 mm 3 mps 699 mmHg 25%
    01:00 +21°C° 0 mm 3 mps 699 mmHg 26%
    02:00 +21°C° 0 mm 3 mps 699 mmHg 26%
    03:00 +21°C° 0 mm 3 mps 699 mmHg 26%
    04:00 +21°C° 0 mm 3 mps 699 mmHg 26%
    05:00 +21°C° 0 mm 4 mps 699 mmHg 25%
    06:00 +21°C° 0 mm 4 mps 699 mmHg 25%
    07:00 +21°C° 0 mm 4 mps 699 mmHg 25%
    08:00 +23°C° 0 mm 4 mps 700 mmHg 22%
    09:00 +27°C° 0 mm 5 mps 700 mmHg 19%
    10:00 +29°C° 0 mm 5 mps 700 mmHg 17%
    11:00 +29°C° 0 mm 6 mps 700 mmHg 16%
    12:00 +30°C° 0 mm 6 mps 700 mmHg 16%
    13:00 +32°C° 0 mm 6 mps 700 mmHg 15%
    14:00 +30°C° 0 mm 6 mps 700 mmHg 16%
    15:00 +29°C° 0 mm 5 mps 700 mmHg 17%
    16:00 +28°C° 0 mm 5 mps 700 mmHg 18%
    17:00 +26°C° 0 mm 4 mps 701 mmHg 20%
    18:00 +25°C° 0 mm 4 mps 701 mmHg 22%
    19:00 +22°C° 0 mm 3 mps 702 mmHg 25%
    20:00 +21°C° 0 mm 4 mps 703 mmHg 32%
    21:00 +20°C° 0 mm 4 mps 703 mmHg 39%
    22:00 +19°C° 0 mm 5 mps 704 mmHg 46%
    23:00 +17°C° 0.2 mm 5 mps 704 mmHg 55%

    28 October, Sunday

    Time Temperature Precipitation Wind Pressure Humidity
    00:00 +16°C° 0.2 mm 5 mps 705 mmHg 64%
    01:00 +15°C° 0.2 mm 5 mps 706 mmHg 73%
    02:00 +14°C° 0.1 mm 5 mps 706 mmHg 71%
    03:00 +13°C° 0.1 mm 5 mps 707 mmHg 69%
    04:00 +13°C° 0.1 mm 5 mps 708 mmHg 66%
    05:00 +12°C° 0 mm 5 mps 708 mmHg 63%
    06:00 +12°C° 0 mm 5 mps 709 mmHg 60%
    07:00 +12°C° 0 mm 5 mps 709 mmHg 57%
    08:00 +12°C° 0 mm 5 mps 709 mmHg 53%
    09:00 +11°C° 0 mm 6 mps 709 mmHg 50%
    10:00 +13°C° 0 mm 6 mps 710 mmHg 46%
    11:00 +13°C° 0 mm 6 mps 710 mmHg 44%
    12:00 +14°C° 0 mm 6 mps 710 mmHg 42%
    13:00 +14°C° 0 mm 6 mps 710 mmHg 40%
    14:00 +14°C° 0 mm 6 mps 709 mmHg 39%
    15:00 +13°C° 0 mm 6 mps 709 mmHg 38%
    16:00 +13°C° 0 mm 6 mps 709 mmHg 36%
    17:00 +11°C° 0 mm 6 mps 709 mmHg 36%
    18:00 +10°C° 0 mm 6 mps 709 mmHg 35%
    19:00 +10°C° 0 mm 6 mps 709 mmHg 34%
    20:00 +10°C° 0 mm 5 mps 709 mmHg 34%
    21:00 +9°C° 0 mm 5 mps 709 mmHg 33%
    22:00 +9°C° 0 mm 5 mps 709 mmHg 32%
    23:00 +10°C° 0 mm 4 mps 708 mmHg 34%
    Show more